Tracking 35048 objects as of 19-Aug-2026
HD Live streaming from Space Station
objects crossing your sky now

STARLINK-3737

Track STARLINK-3737 now!
10-day predictions
STARLINK-3737 is classified as:


NORAD ID: 52114
Int'l Code: 2022-029AC
Launch date: March 19, 2022
Source: United States (US)
Launch site: AIR FORCE EASTERN TEST RANGE (AFETR)
Your satellite tracking list
Your tracking list is empty




NASA's NSSDC Master Catalog

Two Line Element Set (TLE):
1 52114U 22029AC  26230.87965885  .00000599  00000-0  28871-4 0  9990
2 52114  53.1612  61.8523 0001191  85.9663 274.1476 15.34394670245393
Source of the keplerian elements: AFSPC